Weather observations for the past three days for
Ciudad Juarez International
Imperial (Metric)
Date Time (cdt) Wind (mph) Vis. (mi.) Weather Sky Cond. Temperature (ºF) Relative Humidity Wind Chill (°F) Heat Index (°F) Pressure Precipitation (in)
Air Dwpt 6 hour altimeter (in) sea level (mb) 1 hr 3 hr 6 hr
Max. Min.
10 09:40 SW 6 10.00 Clear SKC 75.2 24.8 15% 75 30.05 1005.6
10 08:40 S 6 10.00 Clear SKC 71.6 24.8 17% 30.02 0.0
10 07:40 N 5 10.00 A Few Clouds FEW100 77 24.8 14% 76 29.98 0.0
10 06:40 NW 12 10.00 A Few Clouds FEW100 78.8 23 12% 77 29.94 1000.5
09 21:40 SW 6 10.00 Clear SKC 84.2 21.2 10% 81 29.89 1000.3
09 20:40 SW 5 10.00 Clear SKC 87.8 23 9% 84 29.87 0.0
09 19:40 W 12 10.00 Clear SKC 91.4 19.4 7% 87 29.87 0.0
09 18:40 W 8 10.00 Clear SKC 93.2 17.6 6% 89 29.88 1000.1
09 17:40 S 6 10.00 Clear SKC 93.2 17.6 6% 89 29.89 0.0
09 16:40 SW 8 10.00 Clear SKC 95 23 7% 90 29.91 0.0
09 15:40 S 6 10.00 Clear SKC 93.2 21.2 7% 89 29.94 1002.2
09 14:40 S 3 10.00 Clear SKC 91.4 24.8 9% 87 29.97 0.0
09 13:40 SW 3 10.00 Clear SKC 87.8 26.6 11% 84 29.99 0.0
09 12:40 S 8 10.00 Clear SKC 86 28.4 12% 83 30.02 1004.6
09 11:40 S 5 10.00 Clear SKC 82.4 26.6 13% 80 30.02 0.0
09 10:40 Calm 10.00 Clear SKC 78.8 28.4 16% 78 30.02 0.0
09 09:40 SW 8 10.00 Clear SKC 73.4 26.6 17% 30.03 1005.2
09 08:40 Calm 10.00 Clear SKC 66.2 30.2 26% 30.01 0.0
09 06:40 S 5 10.00 Clear SKC 62.6 28.4 27% 29.96 1003.5
08 21:40 Calm 10.00 Clear SKC 80.6 21.2 11% 79 29.92 1002.2
08 20:40 SW 5 10.00 Clear SKC 84.2 19.4 9% 81 29.9 0.0
08 19:40 NW 5 10.00 Clear SKC 87.8 19.4 8% 84 29.89 0.0
08 18:40 W 3 10.00 Clear SKC 87.8 15.8 7% 84 29.89 1001.6
08 17:40 W 9 10.00 Clear SKC 87.8 12.2 6% 84 29.9 0.0
08 16:40 SW 6 10.00 A Few Clouds FEW050 87.8 21.2 9% 84 29.92 0.0
08 15:40 NW 7 10.00 A Few Clouds FEW050 86 23 10% 83 29.93 1003.2
08 14:40 Calm 10.00 A Few Clouds FEW050 FEW080 84.2 21.2 10% 81 29.96 0.0
08 13:42 NW 8 10.00 A Few Clouds FEW050 FEW200 84.2 23 10% 81 29.97 0.0
08 12:40 Vrbl 3 10.00 Partly Cloudy FEW050 FEW080 SCT200 80.6 26.6 14% 79 29.99 1004.5
08 11:40 N 9 10.00 Partly Cloudy FEW050 SCT120 SCT200 77 26.6 15% 77 30 0.0
08 10:40 S 5 10.00 Mostly Cloudy FEW050 SCT120 BKN200 73.4 35.6 25% 30.01 0.0
08 09:40 N 5 10.00 Partly Cloudy FEW080 SCT130 SCT200 69.8 37.4 31% 30.01 1005.7
08 08:40 SE 3 10.00 Partly Cloudy FEW090 SCT200 68 37.4 33% 29.99 0.0
08 06:40 SW 3 10.00 Partly Cloudy FEW050 SCT090 SCT200 59 35.6 42% 29.98 1004.9
07 22:41 E 10 10.00 Partly Cloudy SCT200 75.2 28.4 18% 76 29.98 0.0
07 21:41 NE 7 10.00 Partly Cloudy FEW040 SCT200 75.2 24.8 15% 75 29.95 1005.1
07 20:40 N 5 10.00 Partly Cloudy FEW040 SCT200 78.8 24.8 13% 77 29.93 0.0
07 19:40 NE 7 10.00 A Few Clouds FEW040 FEW200 80.6 24.8 13% 79 29.93 0.0
07 18:40 NE 9 10.00 A Few Clouds FEW040 80.6 26.6 14% 79 29.94 1004.2
07 17:42 SW 5 10.00 A Few Clouds FEW040 82.4 26.6 13% 80 29.96 0.0
07 16:40 SE 7 10.00 Clear SKC 82.4 26.6 13% 80 29.98 0.0
07 15:40 E 3 10.00 Clear SKC 78.8 26.6 15% 78 30.01 1006.6
07 14:42 NE 7 10.00 Clear SKC 78.8 32 18% 78 30.04 0.0
07 13:40 NE 9 10.00 Clear SKC 75.2 30.2 19% 76 30.07 0.0
07 12:40 E 9 10.00 Clear SKC 71.6 32 23% 30.09 1009.5
07 11:40 E 6 10.00 Clear SKC 68 33.8 28% 30.11 0.0
07 10:40 NE 8 10.00 Clear SKC 64.4 32 30% 30.13 0.0
Date Time (cdt) Wind (mph) Vis. (mi.) Weather Sky Cond. Air Dwpt Max. Min. Relative Humidity Wind Chill (°F) Heat Index (°F) altimeter (in) sea level (mb) 1 hr 3 hr 6 hr
6 hour
Temperature (ºF) Pressure Precipitation (in)